Date String (YYYY-MM-DD hh:mm:ss) UTC,Instrument flags,Ambient pressure (hPa),Sample flow (lpm),Bypass flow (lpm),Sample temperature (°C),Ambient temperature (°C),ASC tube jacket temperature (°C),LED temperature (°C),Box temperature (°C),Sample RH (%),Span deviation,Mass concentration (μg/m³),Mass concentration (μg/m³),Mass concentration (μg/m³)
DateTimeUTC,F1_M11,P_M11,Q1_M11,Q2_M11,T1_M11,T2_M11,T3_M11,T4_M11,T5_M11,U1_M11,ZSPAN_M11,X0_M11,X2_M11,X1_M11
2022-08-13 10:00:00,,0832.8,4.99,0.00,29.8,28.9,00.0,38.5,31.7,33.6,0000.0,0010.67,0005.77,0004.96
2022-08-13 10:01:00,,0832.8,5.01,0.00,29.8,28.5,00.0,38.5,31.6,33.5,0000.0,0010.62,0005.77,0004.97
2022-08-13 10:02:00,,0832.7,5.00,0.00,29.7,27.6,00.0,38.4,31.3,33.6,0000.0,0010.53,0005.78,0005.01
2022-08-13 10:03:00,,0832.7,4.99,0.00,29.6,27.1,00.0,38.4,31.2,33.7,0000.0,0009.90,0005.84,0005.04
2022-08-13 10:04:00,,0832.8,4.99,0.00,29.5,27.0,00.0,38.3,31.1,34.0,0000.0,0009.90,0005.86,0005.06
2022-08-13 10:05:00,,0832.8,5.00,0.00,29.4,27.1,00.0,38.3,31.1,34.2,0000.0,0009.95,0005.86,0005.08
2022-08-13 10:06:00,,0832.8,5.00,0.00,29.4,27.3,00.0,38.3,31.1,34.2,0000.0,0009.79,0005.85,0005.10
2022-08-13 10:07:00,,0832.9,4.99,0.00,29.4,27.4,00.0,38.3,31.1,34.2,0000.0,0009.74,0005.88,0005.11
2022-08-13 10:08:00,,0832.8,5.00,0.00,29.4,27.6,00.0,38.3,31.2,34.3,0000.0,0009.76,0005.88,0005.12
2022-08-13 10:09:00,,0832.9,5.00,0.00,29.4,27.8,00.0,38.3,31.2,34.2,0000.0,0009.85,0005.90,0005.13
2022-08-13 10:10:00,,0832.8,4.99,0.00,29.4,27.9,00.0,38.2,31.2,34.2,0000.0,0009.93,0005.90,0005.14
2022-08-13 10:11:00,,0832.8,5.01,0.00,29.4,28.1,00.0,38.2,31.3,34.2,0000.0,0009.66,0005.92,0005.15
2022-08-13 10:12:00,,0832.8,5.00,0.00,29.4,28.2,00.0,38.3,31.3,34.2,0000.0,0010.60,0006.00,0005.16
2022-08-13 10:13:00,,0832.8,5.00,0.00,29.4,28.3,00.0,38.3,31.4,34.1,0000.0,0011.12,0006.03,0005.17
2022-08-13 10:14:00,,0832.8,5.00,0.00,29.5,28.4,00.0,38.3,31.4,34.1,0000.0,0010.90,0006.02,0005.17
2022-08-13 10:15:00,,0832.8,5.01,0.00,29.5,28.5,00.0,38.3,31.4,34.1,0000.0,0010.84,0006.00,0005.19
2022-08-13 10:16:00,,0832.8,5.00,0.00,29.5,28.6,00.0,38.3,31.5,34.0,0000.0,0010.75,0005.99,0005.19
2022-08-13 10:17:00,,0832.9,4.99,0.00,29.5,28.6,00.0,38.3,31.5,34.0,0000.0,0011.00,0006.03,0005.20
2022-08-13 10:18:00,,0832.9,5.01,0.00,29.6,28.7,00.0,38.3,31.5,34.0,0000.0,0011.12,0006.03,0005.22
2022-08-13 10:19:00,,0832.9,5.01,0.00,29.6,28.8,00.0,38.3,31.6,33.9,0000.0,0011.30,0006.04,0005.22
2022-08-13 10:20:00,,0833.0,5.00,0.00,29.6,28.8,00.0,38.4,31.6,33.8,0000.0,0011.51,0006.02,0005.22
2022-08-13 10:21:00,,0833.0,5.01,0.00,29.7,28.9,00.0,38.4,31.6,33.8,0000.0,0011.42,0006.02,0005.22
2022-08-13 10:22:00,,0833.0,5.00,0.00,29.7,28.9,00.0,38.4,31.7,33.8,0000.0,0011.40,0006.01,0005.22
2022-08-13 10:23:00,,0833.0,4.99,0.00,29.7,28.8,00.0,38.4,31.7,33.7,0000.0,0010.87,0005.94,0005.22
2022-08-13 10:24:00,,0832.9,5.01,0.00,29.7,28.1,00.0,38.4,31.4,33.8,0000.0,0010.54,0005.94,0005.23
2022-08-13 10:25:00,,0832.9,4.99,0.00,29.6,27.7,00.0,38.4,31.4,33.9,0000.0,0010.54,0005.94,0005.24
2022-08-13 10:26:00,,0832.9,5.01,0.00,29.6,27.6,00.0,38.3,31.3,34.2,0000.0,0010.83,0005.99,0005.24
2022-08-13 10:27:00,,0833.0,5.00,0.00,29.5,27.7,00.0,38.3,31.3,34.4,0000.0,0011.28,0006.03,0005.24
2022-08-13 10:28:00,,0833.0,4.99,0.00,29.5,27.8,00.0,38.3,31.3,34.4,0000.0,0012.85,0006.07,0005.25
2022-08-13 10:29:00,,0833.0,5.00,0.00,29.5,27.9,00.0,38.3,31.3,34.4,0000.0,0013.12,0006.11,0005.25
2022-08-13 10:30:00,,0833.1,5.00,0.00,29.5,28.0,00.0,38.3,31.3,34.4,0000.0,0013.11,0006.13,0005.25
2022-08-13 10:31:00,,0833.0,5.00,0.00,29.5,28.2,00.0,38.3,31.4,34.4,0000.0,0012.69,0006.14,0005.26
2022-08-13 10:32:00,,0833.1,5.00,0.00,29.5,28.3,00.0,38.3,31.4,34.4,0000.0,0012.56,0006.12,0005.26
2022-08-13 10:33:00,,0833.1,4.99,0.00,29.5,28.4,00.0,38.3,31.4,34.4,0000.0,0012.45,0006.07,0005.26
2022-08-13 10:34:00,,0833.1,5.00,0.00,29.5,28.5,00.0,38.4,31.5,34.3,0000.0,0012.32,0006.08,0005.26
2022-08-13 10:35:00,,0833.1,5.00,0.00,29.6,28.6,00.0,38.4,31.5,34.3,0000.0,0012.17,0006.07,0005.27
2022-08-13 10:36:00,,0833.1,4.99,0.00,29.6,28.6,00.0,38.4,31.5,34.2,0000.0,0012.31,0006.13,0005.28
2022-08-13 10:37:00,,0833.1,5.00,0.00,29.6,28.7,00.0,38.4,31.6,34.2,0000.0,0012.25,0006.12,0005.29
2022-08-13 10:38:00,,0833.1,5.00,0.00,29.7,28.8,00.0,38.4,31.6,34.1,0000.0,0012.16,0006.10,0005.29
2022-08-13 10:39:00,,0833.1,4.99,0.00,29.7,28.9,00.0,38.4,31.7,34.1,0000.0,0011.43,0006.09,0005.30
2022-08-13 10:40:00,,0833.1,5.02,0.00,29.7,28.9,00.0,38.4,31.7,34.0,0000.0,0011.49,0006.07,0005.32
2022-08-13 10:41:00,,0833.0,5.00,0.00,29.7,29.0,00.0,38.5,31.7,33.9,0000.0,0011.47,0006.06,0005.35
2022-08-13 10:42:00,,0833.0,5.00,0.00,29.7,28.5,00.0,38.4,31.6,33.9,0000.0,0011.46,0006.06,0005.38
2022-08-13 10:43:00,,0833.0,5.00,0.00,29.7,27.7,00.0,38.4,31.3,34.0,0000.0,0011.55,0006.11,0005.39
2022-08-13 10:44:00,,0833.0,4.99,0.00,29.6,27.2,00.0,38.3,31.2,34.1,0000.0,0011.61,0006.16,0005.41
2022-08-13 10:45:00,,0833.0,5.00,0.00,29.5,27.1,00.0,38.3,31.1,34.4,0000.0,0011.55,0006.20,0005.43
2022-08-13 10:46:00,,0833.0,5.01,0.00,29.4,27.1,00.0,38.3,31.0,34.8,0000.0,0011.43,0006.23,0005.44
2022-08-13 10:47:00,,0833.0,5.00,0.00,29.3,27.3,00.0,38.3,31.0,34.7,0000.0,0011.32,0006.18,0005.44
2022-08-13 10:48:00,,0833.0,5.00,0.00,29.3,27.4,00.0,38.2,31.1,34.7,0000.0,0011.23,0006.23,0005.44
2022-08-13 10:49:00,,0833.1,4.99,0.00,29.3,27.6,00.0,38.2,31.1,34.7,0000.0,0010.89,0006.24,0005.45
2022-08-13 10:50:00,,0833.0,5.00,0.00,29.3,27.8,00.0,38.2,31.2,34.7,0000.0,0010.11,0006.21,0005.44
2022-08-13 10:51:00,,0833.1,5.00,0.00,29.3,27.9,00.0,38.2,31.2,34.7,0000.0,0009.70,0006.20,0005.43
2022-08-13 10:52:00,,0833.0,4.99,0.00,29.4,28.0,00.0,38.2,31.3,34.6,0000.0,0009.65,0006.18,0005.43
2022-08-13 10:53:00,,0833.0,5.00,0.00,29.4,28.2,00.0,38.2,31.3,34.6,0000.0,0009.73,0006.19,0005.43
2022-08-13 10:54:00,,0833.1,5.00,0.00,29.4,28.3,00.0,38.2,31.3,34.5,0000.0,0010.50,0006.22,0005.43
2022-08-13 10:55:00,,0833.1,5.01,0.00,29.4,28.4,00.0,38.2,31.4,34.4,0000.0,0011.05,0006.22,0005.43
2022-08-13 10:56:00,,0833.1,5.00,0.00,29.5,28.5,00.0,38.2,31.4,34.4,0000.0,0011.02,0006.19,0005.42
2022-08-13 10:57:00,,0833.1,4.99,0.00,29.5,28.5,00.0,38.3,31.4,34.3,0000.0,0010.99,0006.16,0005.42
2022-08-13 10:58:00,,0833.1,5.00,0.00,29.5,28.6,00.0,38.3,31.5,34.3,0000.0,0011.00,0006.16,0005.43
2022-08-13 10:59:00,,0833.1,5.00,0.00,29.5,28.7,00.0,38.3,31.5,34.1,0000.0,0011.27,0006.14,0005.44
